Preview of NWS' New Version of Forecast
This preview is not operational and should not be used for support decisions.

Regional Weather Roundup (RWR)

Issued by National Weather Service (NWS)

                            
000
ASUS43 KBIS 191810
RWRND 

NORTH DAKOTA REGIONAL WEATHER ROUNDUP
NATIONAL WEATHER SERVICE BISMARCK ND
1200 PM CST TUE FEB 19 2019

NOTE: "FAIR" INDICATES FEW OR NO CLOUDS BELOW 12,000 FEET WITH NO
SIGNIFICANT WEATHER AND/OR OBSTRUCTIONS TO VISIBILITY.


NDZ001>003-009>011-017-191900-
NORTHWEST NORTH DAKOTA
  
CITY           SKY/WX    TMP DP  RH WIND       PRES   REMARKS
WILLISTON      SUNNY      1  -9  62 S10       30.15F WCI -15          
6HR MIN TEMP: -21; 6HR MAX TEMP:   1;                                

MINOT          CLOUDY     7  -4  60 S17G25    30.18F WCI -12          
MINOT AFB      CLOUDY     3  -6  65 SW15      30.17F WCI -15          
$$
 
NDZ018>021-031>035-040>046-191900-
SOUTHWEST NORTH DAKOTA
  
CITY           SKY/WX    TMP DP  RH WIND       PRES   REMARKS
BISMARCK       SUNNY     -3  -8  79 SE6       30.29F WCI -15          
6HR MIN TEMP: -22; 6HR MAX TEMP:  -3; 6HR PCP: TRACE;                

DICKINSON      SUNNY      2  -5  72 S14       30.09F WCI -16          
GARRISON         N/A     -3  -7  82 S8        30.22F WCI -18          
6HR MIN TEMP: -19; 6HR MAX TEMP:  -3; 6HR PCP:  0.01;                

HETTINGER ARPT PTSUNNY    0  -5  79 SE9       30.13F WCI -15          
$$
 
NDZ004>008-012>016-024-026-027-054-191900-
NORTHEAST NORTH DAKOTA
  
CITY           SKY/WX    TMP DP  RH WIND       PRES   REMARKS
GRAND FORKS    SUNNY      0  -6  76 S16       30.40S WCI -20          
GRND FRKS AFB  SUNNY      5  -3  67 S12       30.38S WCI -11          
DEVILS LAKE    SUNNY     -1  -7  75 SW10      30.30S WCI -17          
$$
 
NDZ022-023-025-028>030-036>039-047>053-191900-
SOUTHEAST NORTH DAKOTA
  
CITY           SKY/WX    TMP DP  RH WIND       PRES   REMARKS
FARGO          SUNNY      4   0  83 S14       30.44F WCI -14          
6HR MIN TEMP: -10; 6HR MAX TEMP:   4;                                

JAMESTOWN      SUNNY      4  -1  80 S7        30.32F WCI  -8          
$$